This demonstration page uses our WeatherBlox Daily Observations layout. Learn more.

Left ArrowRight Arrow

Hourly Observations for April 30, 2020

Temp ( °F °C ) Dew Point ( °F °C ) Humidity (%) Winds ( mph kmh ) Pressure ( in mb ) Visibility ( mi km ) Precip ( " mm )
12:15 am 00:15 Clear 46 7.7 37 2.9 72 72 NE 3 6 30.15 1021 10 16 N/A
12:35 am 00:35 Clear 45 7.1 37 2.6 73 73 N N/A 30.16 1021 10 16 N/A
12:55 am 00:55 Clear 43 6.1 36 2.3 77 77 N N/A 30.17 1022 10 16 N/A
1:15 am 01:15 Clear 41 4.9 35 1.5 79 79 N N/A 30.18 1022 10 16 N/A
1:35 am 01:35 Clear 38 3.6 32 0.1 78 78 N N/A 30.19 1022 10 16 N/A
1:55 am 01:55 Clear 40 4.2 34 1 80 80 NW 3 6 30.19 1022 10 16 N/A
2:15 am 02:15 Clear 38 3.3 32 undefined 79 79 W 6 9 30.19 1022 10 16 N/A
2:35 am 02:35 Clear 39 3.8 34 1.3 84 84 W 5 7 30.18 1022 10 16 N/A
2:55 am 02:55 Clear 39 4.1 35 1.5 83 83 N N/A 30.17 1022 10 16 N/A
3:15 am 03:15 Clear 39 4.1 34 1.3 82 82 W 3 6 30.17 1022 10 16 N/A
3:35 am 03:35 Clear 38 3.6 34 1.3 85 85 W 6 9 30.17 1022 10 16 N/A
3:55 am 03:55 Clear 38 3.5 35 1.4 86 86 N N/A 30.16 1021 10 16 N/A
4:15 am 04:15 Clear 37 2.6 32 0.2 84 84 N N/A 30.18 1022 10 16 N/A
4:35 am 04:35 Clear 35 1.8 31 -0.5 85 85 N N/A 30.18 1022 10 16 N/A
4:55 am 04:55 Clear 36 2.4 32 -0.1 84 84 N N/A 30.18 1022 10 16 N/A
5:15 am 05:15 Clear 36 2.4 32 0.2 86 86 N N/A 30.17 1022 10 16 N/A
5:35 am 05:35 Clear 37 2.5 32 undefined 84 84 N N/A 30.16 1021 10 16 N/A
5:55 am 05:55 Clear 36 2.1 32 undefined 86 86 N N/A 30.17 1022 10 16 N/A
6:15 am 06:15 Clear 35 1.9 32 -0.1 87 87 N N/A 30.17 1022 10 16 N/A
6:35 am 06:35 Clear 36 2 32 0.1 87 87 N N/A 30.17 1022 10 16 N/A
6:55 am 06:55 Sunny 36 2 32 undefined 87 87 N N/A 30.17 1022 10 16 N/A
7:15 am 07:15 Sunny 35 1.9 32 undefined 87 87 W 3 6 30.18 1022 10 16 N/A
7:35 am 07:35 Sunny 39 3.9 35 1.9 87 87 N N/A 30.16 1021 10 16 N/A
7:55 am 07:55 Sunny 44 6.5 40 4.3 86 86 N N/A 30.13 1020 10 16 N/A
8:15 am 08:15 Sunny 50 9.8 42 5.7 76 76 SW 3 6 30.10 1019 10 16 N/A
8:35 am 08:35 Sunny 52 11.1 42 5.8 70 70 SSW 6 9 30.08 1019 10 16 N/A
8:55 am 08:55 Sunny 54 12.3 43 5.9 65 65 S 5 7 30.07 1018 10 16 N/A
9:15 am 09:15 Sunny 56 13.5 43 6.1 61 61 SSE 6 9 30.05 1018 10 16 N/A
9:35 am 09:35 Sunny 58 14.2 42 5.8 57 57 SSE 6 9 30.04 1017 10 16 N/A
9:55 am 09:55 Sunny 60 15.5 42 5.8 53 53 SSE 7 11 30.02 1017 10 16 N/A
10:15 am 10:15 Sunny 61 16.2 41 5.1 48 48 SSE 9 15 30.02 1017 10 16 N/A
10:35 am 10:35 Sunny 63 17.1 41 5 45 45 SSE 8 13 30.00 1016 10 16 N/A
10:55 am 10:55 Sunny 64 17.7 39 4 40 40 SSE 9 15 30.00 1016 10 16 N/A
11:15 am 11:15 Sunny 65 18.4 38 3.5 37 37 S 9 15 29.98 1015 10 16 N/A
11:35 am 11:35 Sunny 66 18.7 38 3.1 36 36 SSE 12 19 29.98 1015 10 16 N/A
11:55 am 11:55 Sunny 66 19.1 38 3.2 35 35 SSE 10 17 29.96 1015 10 16 N/A
12:15 pm 12:15 Sunny 68 20.1 39 3.8 34 34 S 12 19 29.95 1014 10 16 N/A
12:35 pm 12:35 Sunny 69 20.7 38 3.2 32 32 S 14 22 29.93 1014 10 16 N/A
12:55 pm 12:55 Sunny 70 21.3 38 3.3 31 31 S 12 19 29.91 1013 10 16 N/A
1:15 pm 13:15 Sunny 72 22 37 2.7 28 28 S 12 19 29.89 1012 10 16 N/A
1:35 pm 13:35 Sunny 73 22.6 38 3.1 28 28 S 14 22 29.88 1012 10 16 N/A
1:55 pm 13:55 Sunny 74 23.1 37 3 27 27 SSE 16 26 29.86 1011 10 16 N/A
2:15 pm 14:15 Sunny 74 23.2 37 2.7 26 26 S 17 28 29.84 1011 10 16 N/A
2:35 pm 14:35 Sunny 75 23.9 38 3.3 26 26 S 17 28 29.83 1010 10 16 N/A
2:55 pm 14:55 Sunny 76 24.2 38 3.2 26 26 S 16 26 29.81 1010 10 16 N/A
3:15 pm 15:15 Sunny 76 24.5 39 3.9 26 26 S 17 28 29.80 1009 10 16 N/A
3:35 pm 15:35 Sunny 76 24.3 39 3.9 27 27 S 17 28 29.80 1009 10 16 N/A
3:55 pm 15:55 Sunny 77 25 38 3.1 24 24 S 20 31 29.79 1009 10 16 N/A
4:15 pm 16:15 Sunny 77 25 38 3.5 25 25 S 18 30 29.78 1008 10 16 N/A
4:35 pm 16:35 Sunny 78 25.3 39 3.9 25 25 S 18 30 29.76 1008 10 16 N/A
4:55 pm 16:55 Sunny 78 25.5 39 3.8 25 25 S 18 30 29.75 1008 10 16 N/A
5:15 pm 17:15 Sunny 78 25.4 40 4.2 25 25 S 18 30 29.74 1007 10 16 N/A
5:35 pm 17:35 Sunny 77 25.1 39 3.9 25 25 S 17 28 29.74 1007 10 16 N/A
5:55 pm 17:55 Sunny 78 25.5 40 4.2 25 25 SSE 20 31 29.72 1007 10 16 N/A
6:15 pm 18:15 Sunny 78 25.3 40 4.2 26 26 S 16 26 29.71 1006 10 16 N/A
6:35 pm 18:35 Sunny 78 25.5 40 4.5 26 26 SSE 20 31 29.70 1006 10 16 N/A
6:55 pm 18:55 Sunny 78 25.3 40 4.4 26 26 SSE 20 31 29.70 1006 10 16 N/A
7:15 pm 19:15 Sunny 77 25 40 4.5 27 27 SSE 22 35 29.70 1006 10 16 N/A
7:35 pm 19:35 Sunny 75 24.1 40 4.5 28 28 SSE 16 26 29.69 1006 10 16 N/A
7:55 pm 19:55 Sunny 73 23 40 4.6 30 30 SSE 16 26 29.70 1006 10 16 N/A
8:15 pm 20:15 Sunny 71 21.8 40 4.6 33 33 SSE 13 20 29.71 1006 10 16 N/A
8:35 pm 20:35 Clear 69 20.6 40 4.5 35 35 SSE 10 17 29.71 1006 10 16 N/A
8:55 pm 20:55 Clear 67 19.6 40 4.5 37 37 SSE 12 19 29.72 1006 10 16 N/A
9:15 pm 21:15 Clear 66 18.7 40 4.7 40 40 SSE 12 19 29.74 1007 10 16 N/A
9:35 pm 21:35 Clear 65 18.4 41 5 41 41 SSE 12 19 29.73 1007 10 16 N/A
9:55 pm 21:55 Clear 64 17.7 41 5.1 44 44 SSE 10 17 29.75 1007 10 16 N/A
10:15 pm 22:15 Clear 63 17.1 42 5.3 46 46 SSE 10 17 29.75 1008 10 16 N/A
10:35 pm 22:35 Clear 63 17 42 5.6 47 47 SSE 12 19 29.75 1008 10 16 N/A
10:55 pm 22:55 Clear 62 16.5 42 5.7 49 49 SSE 10 17 29.76 1008 10 16 N/A
11:15 pm 23:15 Clear 61 16 43 5.9 51 51 SSE 10 17 29.75 1007 10 16 N/A
11:35 pm 23:35 Clear 62 16.7 43 6.2 50 50 SSE 13 20 29.75 1007 10 16 N/A
11:55 pm 23:55 Clear 62 16.6 44 6.5 52 52 SSE 13 20 29.75 1007 10 16 N/A

Powered by AerisWeather